星链-30040 (STARLINK-30040 )

导读

STARLINK-30040是美国SpaceX公司星链星座的一员,于北京时间2023年2月27日发射入轨。星链是全球规模最大的低轨卫星互联网星座,依托低成本制造与发射优势快速组网,该卫星承担全球卫星互联网接入服务,面向个人及行业用户提供宽带通信,支撑偏远地区联网、移动场景通信等应用,助力星链完成全球覆盖的组网布局。

Basic Information
目录编号:
55697
目录名称:
STARLINK-30040
国际标识:
2023-026C
轨道中心:
EARTH
卫星名称:
星链-30040
卫星全名:
星链-30040 (STARLINK-30040 )
卫星状态:
已陨落 最后检测时间 2024-08-23
发射日期:
2023-02-27 UTC
国别 :
美国 (US)
星等 :
--
Orbit Information
数据来源 国际轨道数据
星历时间: 2024-08-24T01:59:06+0800
轨道信息已过期659天
半长轴: 6572.863km
偏心率: 0.0002579
轨道倾角: 42.981°
近地点辐角 52.944°
升交点赤经 238.420°
平近点角 97.508°
近地点: 193.032km
远地点: 196.424km
周期: 88.388分钟
每日圈数: 16.291872
Detailed Information
固有亮度:
5
最大亮度:
0.4
卫星平台:
Starlink v2.0 mini
覆盖范围:
全球
运营商:
太空探索技术公司
运营商所在国:
美国
制造商(研发单位):
太空探索技术公司
制造商所在国:
美国
使用方式:
暂无
Satellite Introduction
星链(Starlink)计划是由太空探索技术公司(SpaceX)提出的一个巨型低轨卫星互联网星座项目,计划在2019年至2024年间在太空搭建由约1.2万颗卫星组成的“星链”网络,其中1584颗将部署在地球上空550千米处的近地轨道,并从2020年开始工作。该卫星仍在工作。